This is the latest recevied weather packets stored in our database for station/object SQ5LTL-2. If no packets are shown the sender has not sent any weather packets the latest 10 day(s).
| Time | Temp. | Humidity | Pressure | Rain* | Wind** | Luminosity | Snow |
|---|---|---|---|---|---|---|---|
| 1777641031 | 17.78° C | 41% | 1025.5 hPa | 0 mm | - | 415 W/m² | - |
| 1777640729 | 18.33° C | 41% | 1025.5 hPa | 0 mm | - | 143 W/m² | - |
| 1777640428 | 18.89° C | 39% | 1025.5 hPa | 0 mm | - | 235 W/m² | - |
| 1777640127 | 18.33° C | 40% | 1025.5 hPa | 0 mm | - | 503 W/m² | - |
| 1777639825 | 18.89° C | 40% | 1025.5 hPa | 0 mm | - | 191 W/m² | - |
| 1777639524 | 17.78° C | 40% | 1025.5 hPa | 0 mm | - | 510 W/m² | - |
| 1777639222 | 17.78° C | 40% | 1025.7 hPa | 0 mm | - | 295 W/m² | - |
| 1777638921 | 18.33° C | 40% | 1025.8 hPa | 0 mm | - | 342 W/m² | - |
| 1777638619 | 18.33° C | 40% | 1025.8 hPa | 0 mm | - | 399 W/m² | - |
| 1777638318 | 18.33° C | 39% | 1025.8 hPa | 0 mm | - | 333 W/m² | - |
| 1777638016 | 18.33° C | 39% | 1025.8 hPa | 0 mm | - | 373 W/m² | - |
| 1777637736 | 18.33° C | 39% | 1026 hPa | 0 mm | - | 594 W/m² | - |
| 1777637433 | 17.22° C | 40% | 1026 hPa | 0 mm | - | 643 W/m² | - |
| 1777637132 | 17.22° C | 40% | 1026.1 hPa | 0 mm | - | 283 W/m² | - |
| 1777636831 | 17.78° C | 41% | 1026 hPa | 0 mm | - | 211 W/m² | - |
| 1777636530 | 17.78° C | 40% | 1026.1 hPa | 0 mm | - | 208 W/m² | - |
| 1777636228 | 18.33° C | 39% | 1026.1 hPa | 0 mm | - | 268 W/m² | - |
| 1777635926 | 18.33° C | 39% | 1026.1 hPa | 0 mm | - | 712 W/m² | - |
| 1777635625 | 17.78° C | 39% | 1026.1 hPa | 0 mm | - | 777 W/m² | - |
| 1777635324 | 17.22° C | 40% | 1026.1 hPa | 0 mm | - | 419 W/m² | - |
| 1777635023 | 17.78° C | 40% | 1026.1 hPa | 0 mm | - | 297 W/m² | - |
| 1777634720 | 17.78° C | 41% | 1026.1 hPa | 0 mm | - | 548 W/m² | - |
| 1777634419 | 17.78° C | 40% | 1026 hPa | 0 mm | - | 327 W/m² | - |
| 1777634117 | 18.33° C | 38% | 1026 hPa | 0 mm | - | 455 W/m² | - |
| 1777633816 | 17.78° C | 40% | 1026 hPa | 0 mm | - | 469 W/m² | - |
* Rain latest hour (hover to see other rain measurements)
** Current wind speed in m/s (hover to see current wind gust speed)